OpenBCM V1.13 (Linux)

Packet Radio Mailbox

DB0FHN

[JN59NK Nuernberg]

 Login: GUEST





  
LU1HVK > KEP      10.01.20 18:34l 243 Lines 12025 Bytes #999 (0) @ WW
BID : 38788_LU1HVK
Read: DJ6UX GUEST
Subj: TLE 09 11
Path: DB0FHN<DB0BLO<DB0ERF<DB0RES<IR2UBX<IZ3LSV<IW0QNL<OK0NBR<F3KT<LU4ECL<
      LU9HGS<LU1HVK
Sent: 200110/1601Z 38788@LU1HVK.2594.CBA.ARG.SA LinBPQ6.0.19

                         _    _   _ _ _   ___     ___  __
                        | |  | | | / | | | \ \   / / |/ /
                        | |  | | | | | |_| |\ \ / /| ' /
                        | |__| |_| | |  _  | \ V / | . \
                        |_____\___/|_|_| |_|  \_/  |_|\_\

     BBS/NODO - CORDOBA (LEONES-FF87UH) - LU1HVK-4 NODO - LU1HVK-3 APRS

+----------------------------------------------------------------------------+
OSCAR 7
1  7530U 74089B   19312.86278471 -.00000033  00000-0  74037-4 0  9994
2  7530 101.7657 279.1551 0012514  70.7337 318.0254 12.53640678 58462
OSCAR 11 (UoSAT 2)
1 14781U 84021B   19311.51727349  .00000081  00000-0  16062-4 0  9997
2 14781  97.6029 329.4641 0007794 204.7140 155.3702 14.83118124919780
OSCAR 19 (LUSAT)
1 20442U 90005G   19312.81427545  .00000009  00000-0  19658-4 0  9990
2 20442  98.6632 254.6595 0012906  87.6650 272.6011 14.32937363556875
EYESAT A
1 22825U 93061C   19311.53178733 +.00000001 +00000-0 +18271-4 0  9994
2 22825 098.9150 303.4847 0007614 311.0638 048.9884 14.30070383361956
ITAMSAT
1 22826U 93061D   19311.50038450 +.00000004 +00000-0 +19623-4 0  9998
2 22826 098.9090 303.4263 0008016 298.2138 061.8234 14.30404710362173
RADIO ROSTO
1 23439U 94085A   19311.42076594 -.00000039 +00000-0 +83545-4 0  9991
2 23439 064.8160 246.9267 0145361 085.5007 276.2506 11.27568548023874
JAS 2
1 24278U 96046B   19311.59616717 -.00000007 +00000-0 +30793-4 0  9999
2 24278 098.5592 085.9019 0349613 232.0480 124.8592 13.53094606146740
TECHSAT 1B
1 25397U 98043D   19311.44609132 -.00000015 +00000-0 +12567-4 0  9996
2 25397 098.7018 249.9446 0001540 031.3422 328.7848 14.23673747107826
ISS (ZARYA)
1 25544U 98067A   19311.65034873  .00000782  00000-0  21538-4 0  9991
2 25544  51.6451   9.9487 0005806 239.8014 220.3094 15.50259288197515
PCSAT
1 26931U 01043C   19311.56590312 -.00000011 +00000-0 +27675-4 0  9999
2 26931 067.0524 357.5739 0007478 266.3077 093.7169 14.30557750945193
SAUDISAT 1C
1 27607U 02058C   19311.53344879 -.00000012  00000-0  19187-4 0  9999
2 27607  64.5553 335.9300 0073227 228.8529 130.6241 14.75586564907961
CUTE-1
1 27844U 03031E   19311.48613585 +.00000059 +00000-0 +46080-4 0  9993
2 27844 098.6849 317.5845 0009554 347.0754 013.0178 14.22203776848405
CUBESAT XI 4
1 27848U 03031J   19312.85585979  .00000044  00000-0  40003-4 0  9997
2 27848  98.6922 319.4619 0009594 355.2300   4.8784 14.21795828848485
MOZHAYETS 4
1 27939U 03042A   19313.02992620  .00000024  00000-0  13024-4 0  9996
2 27939  98.0607  86.2284 0012264 340.3220  19.7481 14.66815280861557
CUBESAT XI 5
1 28895U 05043F   19313.06768810  .00000120  00000-0  32002-4 0  9991
2 28895  97.9799  91.0646 0015545 258.0593 101.8867 14.63708260748458
CUTE-1.7+APD II
1 32785U 08021C   19313.08855151  .00000206  00000-0  27789-4 0  9991
2 32785  97.5576 306.1003 0013941 142.2622 217.9576 14.88370093625010
DELFI C3
1 32789U 08021G   19313.09842551  .00000949  00000-0  66892-4 0  9998
2 32789  97.4485 358.3309 0011964   2.2647 357.8633 15.07236923628561
SEEDS
1 32791U 08021J   19311.52245802  .00000216  00000-0  27168-4 0  9993
2 32791  97.5323 310.7007 0014647 122.0448 238.2195 14.90904098625247
YUBELEINY
1 32953U 08025A   19312.74488290 +.00000020 +00000-0 +75656-4 0  9990
2 32953 082.5059 055.7915 0019776 174.7830 185.3459 12.43092079520082
PRISM (HITOMI)
1 33493U 09002B   19311.52674959  .00000423  00000-0  42482-4 0  9998
2 33493  98.1243 237.8732 0016179  74.3707 285.9297 14.96789532586369
KKS-1 (KISEKI)
1 33499U 09002H   19311.61409711 +.00000080 +00000-0 +19807-4 0  9990
2 33499 098.3377 154.7838 0010277 111.8303 248.4000 14.75476567579727
SWISSCUBE
1 35932U 09051B   19312.71389113  .00000140  00000-0  42625-4 0  9994
2 35932  98.5994 122.9983 0008696  87.7366 272.4826 14.56326940537598
BEESAT
1 35933U 09051C   19311.47171124 +.00000123 +00000-0 +38710-4 0  9999
2 35933 098.6009 123.5331 0006891 102.2128 257.9841 14.56410362537446
ITUPSAT 1
1 35935U 09051E   19312.91748150  .00000101  00000-0  34433-4 0  9994
2 35935  98.6118 125.2501 0009227  96.8035 263.4211 14.55565071537471
XIWANG-1 (HOPE-1)
1 36122U 09072B   19312.77644220 -.00000069 +00000-0 -70137-4 0  9999
2 36122 100.0799 308.4648 0007805 020.2770 339.8602 13.16351432475706
TISAT 1
1 36799U 10035E   19312.88124749  .00000221  00000-0  28406-4 0  9991
2 36799  98.1729 109.9564 0011757 342.3165  17.7642 14.91197169506108
JUGNU
1 37839U 11058B   19311.09404211 +.00000296 +00000-0 +16198-4 0  9997
2 37839 019.9599 197.2901 0018993 086.2617 063.6551 14.12663568417160
SRMSAT
1 37841U 11058D   19311.20121675 +.00000306 +00000-0 +23221-4 0  9990
2 37841 019.9718 256.3457 0011656 311.5732 180.2433 14.10642582416604
M-CUBED/EXP-1 PRIME
1 37855U 11061F   19311.61841186 +.00001790 +00000-0 +96326-4 0  9994
2 37855 101.7201 280.1081 0172785 016.0008 344.6568 15.05742141437669
HORYU 2
1 38340U 12025D   19311.41976116 +.00000171 +00000-0 +32885-4 0  9997
2 38340 098.3140 354.1509 0012133 038.1283 322.0782 14.75770498391657
STRAND 1
1 39090U 13009E   19311.53077097 +.00000038 +00000-0 +28642-4 0  9994
2 39090 098.4733 155.0230 0008306 222.9857 137.0680 14.35104048350716
SOMP
1 39134U 13015E   19311.38254890 +.00001424 +00000-0 +73231-4 0  9995
2 39134 064.8627 281.2893 0037401 280.3192 079.3719 15.20473259361754
BEESAT 3
1 39135U 13015F   19311.42642214  .00001018  00000-0  59317-4 0  9990
2 39135  64.8668 301.4604 0039229 285.7894  73.8908 15.17710137361757
BEESAT 2
1 39136U 13015G   19311.45163142 +.00001033 +00000-0 +61360-4 0  9990
2 39136 064.8679 305.6151 0030018 290.5926 069.1980 15.17124972361282
CUBEBUG 1
1 39153U 13018D   19311.27945200  .00000199  00000-0  32852-4 0  9991
2 39153  97.9817  48.6344 0018305  99.4712 260.8570 14.80619857352762
ZACUBE
1 39417U 13066B   19311.50713433  .00000196  00000-0  31140-4 0  9990
2 39417  97.5623 317.0370 0057493 289.5383  69.9627 14.81173829322038
TRITON 1
1 39427U 13066M   19311.58433921  .00000212  00000-0  41370-4 0  9995
2 39427  97.6950 280.3308 0115144  71.4163 289.9508 14.67901228319155
GOMX 1
1 39430U 13066Q   19312.79332537 +.00000136 +00000-0 +33427-4 0  9993
2 39430 097.7632 260.0416 0151267 162.5722 198.0758 14.59305018317477
HUMSAT D
1 39433U 13066T   19311.56959752 +.00000164 +00000-0 +21253-4 0  9999
2 39433 097.5377 353.1593 0030719 184.3521 175.7437 14.92292887323054
CUBEBUG 2
1 39440U 13066AA  19311.51596610  .00000245  00000-0  41034-4 0  9991
2 39440  97.6118 301.6470 0079855 345.3063  14.5826 14.75911819320897
FUNCUBE 1
1 39444U 13066AE  19311.49643895  .00000247  00000-0  36839-4 0  9999
2 39444  97.5590 319.1036 0056564 282.6309  76.8584 14.82004767320934
UWE-3
1 39446U 13066AG  19311.48018332 +.00000226 +00000-0 +36770-4 0  9993
2 39446 097.5864 308.7671 0069005 318.3218 041.2747 14.78446490319628
SPROUT
1 39770U 14029E   19312.71995176 +.00000416 +00000-0 +51949-4 0  9996
2 39770 097.8895 055.1402 0008642 343.9556 016.1349 14.87491077296094
UNISAT 6
1 40012U 14033C   19311.62084856 +.00000183 +00000-0 +34592-4 0  9991
2 40012 097.7357 171.9675 0058462 001.2695 358.8651 14.74028809289593
DUCHIFAT 1
1 40021U 14033M   19311.37949950  .00000296  00000-0  35977-4 0  9991
2 40021  97.9274 236.4561 0011822 307.8276  52.1871 14.90728327292652
QB50P1
1 40025U 14033R   19311.42840397 +.00000232 +00000-0 +30627-4 0  9993
2 40025 097.9059 230.8717 0011516 318.7077 041.3268 14.89014665291906
CHUBUSAT 1
1 40300U 14070C   19311.66754856  .00000512  00000-0  25201-4 0  9993
2 40300  97.3144  22.1737 0018555 278.5976 234.7624 15.22237581277614
NUDT-PHONESAT
1 40900U 15049B   19312.80845612 +.00001861 +00000-0 +81412-4 0  9998
2 40900 097.4374 320.7728 0014146 047.7563 038.0147 15.23244096229446
ZDPS 2A
1 40901U 15049C   19312.99980978  .00000854  00000-0  45358-4 0  9994
2 40901  97.4625 316.7817 0015157  66.4900  18.2196 15.17917278228979
ZDPS 2B
1 40902U 15049D   19312.77978969 +.00000895 +00000-0 +47493-4 0  9995
2 40902 097.4583 313.9452 0015033 065.4237 039.0872 15.17796947228916
XW-2A
1 40903U 15049E   19313.05331747  .00001660  00000-0  40481-4 0  9996
2 40903  97.3215 356.5257 0013132 354.6979  64.3175 15.42291259232341
KAITUO 1A
1 40904U 15049F   19313.01786463  .00000568  00000-0  33398-4 0  9997
2 40904  97.4720 312.6166 0016291  72.3485  11.9301 15.15492958228704
OBJECT G
1 40905U 15049G   19313.00264098  .00000457  00000-0  28403-4 0  9990
2 40905  97.4770 310.0058 0017256  68.1817  16.7255 15.14384374228562
XW-2C
1 40906U 15049H   19313.04600611  .00000674  00000-0  38669-4 0  9996
2 40906  97.4733 312.7957 0016457  64.9395 330.9577 15.15814697228718
XW-2D
1 40907U 15049J   19312.75062917 +.00000440 +00000-0 +26326-4 0  9993
2 40907 097.4703 312.1867 0015727 062.7636 023.4860 15.16012202228681
LILACSAT 2
1 40908U 15049K   19312.76359876 -.00000038 +00000-0 +15420-5 0  9996
2 40908 097.4844 310.8585 0017574 069.5029 015.5044 15.13882411228458
XW-2F
1 40910U 15049M   19312.77256596 +.00000700 +00000-0 +38171-4 0  9997
2 40910 097.4666 314.4313 0016253 055.8197 029.8694 15.17516939228710
XW-2B
1 40911U 15049N   19312.78982219 +.00000736 +00000-0 +41775-4 0  9990
2 40911 097.4729 312.8996 0015683 064.0566 021.4675 15.15943836228588
KAITUO 1B
1 40912U 15049P   19312.78247615 +.00000924 +00000-0 +46188-4 0  9997
2 40912 097.4516 318.3078 0016069 037.8812 047.1951 15.19857987229045
TIANWANG 1C (TW-1C)
1 40926U 15051B   19313.08813245  .00013316  00000-0  17415-3 0  9996
2 40926  97.1194 359.1967 0007292 181.9199 208.6884 15.58719108232471
TIANWANG 1B (TW-1B)
1 40927U 15051C   19313.07586788  .00011669  00000-0  16339-3 0  9998
2 40927  97.1227 358.2570 0006848 195.5317 220.8418 15.56922786232305
